EHRDLEAL

Guest
Details From EHRD - Rotterdam
To LEAL - Alicante
Flight Number -
Tags Generated
Created
Modified
Stats Distance 847 nm / 1,569 km
Max Altitude 0 ft / 0 m
Waypoints 5
Social Downloads 3
Likes 0
Share VATSIM

Download

Looking for another format? Having issues loading an existing format? Contact us
Advertisement - Login to hide

Notes

Generated

Route

EHRD GIPEX ASPET R2305 LEAL

ID Type Via Altitude Latitude Longitude Leg Dist Tot Dist Heading (true) Name
O EHRD APT - 0 ft / 0 m 51.95209˚ 4.42824˚ - 0 nm - -
GIPEX FIX - 0 ft / 0 m 47.75750˚ 2.62333˚ 261 nm 261 nm 196° / 195° -
ASPET FIX - 0 ft / 0 m 43.00000˚ 0.97972˚ 293 nm 555 nm 194° / 193° -
R2305 FIX - 0 ft / 0 m 38.28452˚ -0.57500˚ 291 nm 847 nm 195° / 194° -
O LEAL APT - 0 ft / 0 m 38.28452˚ -0.57500˚ 0 nm 847 nm 270° / 270° -

Altitude Profile

Advertisement - Login to hide

Weather


0- 5 10 15 20 25 30 35+ Temperature / ° C

Clouds and Precipitation
Forecast for 2017-06-24 00:00 UTC. Updated an hour ago

Ground ~20,000 ft ~40,000 ft Winds

EHRD

Details ICAO EHRD (RTM)
Name Rotterdam The Hague
Region Netherlands
Timezone Europe/Amsterdam (UTC+2.0)
Stats Elevation -15 ft / -5 m (AMSL)
Location 51.957468° 4.441662°
Runways 1
Magnetic Variation 0.980° E

METAR

EHRD 232025Z AUTO 23015KT 9999 BKN047 18/14 Q1015 NOSIG

Decode

TAF

TAF EHRD 231722Z 2318/2424 24014KT 9999 BKN040 BECMG 2400/2403 BKN017 TEMPO 2403/2411 6000 -DZRA FEW008 BKN012 BECMG 2409/2412 24017G27KT PROB40 TEMPO 2411/2420 7000 -SHRA SCT015TCU BECMG 2417/2420 24014KT TEMPO 2420/2424 6000 -DZRA FEW008 BKN012

Decode

Departure Runways

ID Width Length Bearing (true) Bearing (mag) Surface Threshold Offset Overrun Length
06 148 ft / 45 m 7,201 ft / 2,195 m 56.93° 55.95° Asphalt 656 ft / 200 m 0 ft / 0 m
24 148 ft / 45 m 7,201 ft / 2,195 m 236.95° 235.97° Asphalt 656 ft / 200 m 0 ft / 0 m

LEAL

Details ICAO LEAL (ALC)
Name Alicante
Region Spain
Timezone Europe/Madrid (UTC+2.0)
Stats Elevation 141 ft / 43 m (AMSL)
Location 38.282169° -0.558157°
Runways 1
Magnetic Variation 0.131° E

METAR

LEAL 232030Z VRB01KT 9999 R10/0800D BCFG NSC 26/20 Q1019 NOSIG

Decode

TAF

TAF TAF LEAL 231700Z 2318/2418 16010KT 9999 FEW020 TX31/2413Z TN21/2406Z BECMG 2318/2319 VRB04KT BECMG 2408/2410 11010KT

Decode

Destination Runways

ID Width Length Bearing (true) Bearing (mag) Surface Threshold Offset Overrun Length
10 148 ft / 45 m 9,799 ft / 2,987 m 100.07° 99.94° Asphalt 0 ft / 0 m 164 ft / 50 m
28 148 ft / 45 m 9,799 ft / 2,987 m 280.09° 279.96° Asphalt 0 ft / 0 m 197 ft / 60 m

Approach Navaids

Runway Type Ident Frequency Range Bearing (true) Bearing (mag) Slope Elevation
10 Localiser IAT 110.30 MHz 18 nm / 33 km 100.09° 99.96° - 29 ft / 9 m (AMSL)
10 Glidescope IAT 110.30 MHz 10 nm / 19 km 100.09° 99.96° 3.00° 129 ft / 39 m (AMSL)
10 DME IAT 110.30 MHz 18 nm / 33 km - - - 129 ft / 39 m (AMSL)

Popular Alternatives